Wray Municipal Airport, CO

4:57 AM MDT on June 24, 2017 (GMT -0600)
Wray Municipal Airport

Weather History for K2V5 - January, 2014

Change the Weather History Date:

Thursday, January 23, 2014

  Actual Average (KSYF) Record (KSYF)
Temperature  
Mean Temperature 12 °F -  
Max Temperature 23 °F 43 °F 61 °F (2016)
Min Temperature 0 °F 16 °F 0 °F (2014)
Degree Days  
Heating Degree Days 54    
Moisture  
Dew Point 2 °F    
Average Humidity 73    
Maximum Humidity 87    
Minimum Humidity 48    
Precipitation  
Precipitation 0.00 in - - ()
Sea Level Pressure  
Sea Level Pressure 30.52 in    
Wind  
Wind Speed 7 mph (WSW)    
Max Wind Speed 12 mph    
Max Gust Speed -    
Visibility 9 miles    
Events Snow    
Averages and records for this station are not official NWS values.
T = Trace of Precipitation, MM = Missing Value Source: NWS Daily Summary

Daily Weather History Graph

Daily Weather History Graph

Search for Another Location

Airport or City:

Trip Planner

Search our weather history database for the weather conditions in past years. The results will help you decide how hot, cold, wet, or windy it might be!

Date:

Astronomy

Jan. 23, 2014 Rise Set
Actual Time 7:04 AM MST 4:57 PM MST
Civil Twilight 6:35 AM MST 5:26 PM MST
Nautical Twilight 6:02 AM MST 5:59 PM MST
Astronomical Twilight 5:30 AM MST 6:31 PM MST
Moon No Moon Rise 10:41 AM MST (1/23)
Length of Visible Light 10h 50m
Length of Day
9h 52m
Waning Gibbous, 54% of the Moon is Illuminated
Jan 23
Waning Gibbous
Jan 23
Last Quarter
Jan 30
New
Feb 6
First Quarter
Feb 14
Full

Hourly Weather History & Observations

Time (MST) Temp. Windchill Dew Point Humidity Pressure Visibility Wind Dir Wind Speed Gust Speed Precip Events Conditions
12:15 AM 9.5 °F -2.6 °F 6.3 °F 87% 30.45 in 2.0 mi ENE 8.1 mph - N/A Snow Light Snow
12:35 AM 9.5 °F -3.5 °F 5.4 °F 83% 30.45 in 3.0 mi NE 9.2 mph - N/A Snow Light Snow
12:55 AM 9.0 °F -4.2 °F 4.6 °F 83% 30.45 in 4.0 mi NE 9.2 mph - N/A Snow Light Snow
1:15 AM 8.4 °F -6.5 °F 4.1 °F 83% 30.46 in 4.0 mi NE 11.5 mph - N/A Snow Light Snow
1:35 AM 8.1 °F -6.2 °F 3.9 °F 83% 30.46 in 7.0 mi NE 10.4 mph - N/A   Overcast
1:55 AM 7.9 °F -6.4 °F 3.6 °F 83% 30.47 in 7.0 mi NE 10.4 mph - N/A   Overcast
2:15 AM 7.7 °F -5.8 °F 3.2 °F 82% 30.49 in 5.0 mi NE 9.2 mph - N/A   Haze
2:35 AM 7.5 °F -5.0 °F 2.3 °F 79% 30.50 in 7.0 mi NE 8.1 mph - N/A   Overcast
2:55 AM 7.7 °F -3.7 °F 2.1 °F 78% 30.50 in 7.0 mi NE 6.9 mph - N/A   Overcast
3:15 AM 7.3 °F -4.1 °F 2.3 °F 80% 30.50 in 4.0 mi NNE 6.9 mph - N/A Snow Light Snow
3:35 AM 7.0 °F -4.5 °F 2.1 °F 80% 30.51 in 4.0 mi NNE 6.9 mph - N/A Snow Light Snow
3:55 AM 6.8 °F -4.8 °F 2.7 °F 83% 30.52 in 3.0 mi NNE 6.9 mph - N/A Snow Light Snow
4:15 AM 6.8 °F -3.5 °F 2.3 °F 82% 30.52 in 4.0 mi North 5.8 mph - N/A Snow Light Snow
4:35 AM 6.8 °F -0.1 °F 1.9 °F 80% 30.52 in 7.0 mi NNE 3.5 mph - N/A   Overcast
4:55 AM 6.6 °F -2.2 °F 1.9 °F 81% 30.54 in 4.0 mi NNE 4.6 mph - N/A Snow Light Snow
5:15 AM 6.6 °F -0.3 °F 1.8 °F 80% 30.54 in 10.0 mi NNE 3.5 mph - N/A Snow Light Snow
5:35 AM 6.8 °F -0.1 °F 1.2 °F 78% 30.55 in 10.0 mi NE 3.5 mph - N/A   Overcast
5:55 AM 6.6 °F - 0.5 °F 76% 30.57 in 10.0 mi Calm Calm - N/A   Overcast
6:15 AM 5.9 °F - -0.2 °F 76% 30.58 in 10.0 mi Calm Calm - N/A   Mostly Cloudy
6:35 AM 5.0 °F - -0.4 °F 78% 30.59 in 10.0 mi Calm Calm - N/A   Scattered Clouds
6:55 AM 4.5 °F - -0.8 °F 79% 30.59 in 10.0 mi Calm Calm - N/A   Scattered Clouds
7:15 AM 4.1 °F - -0.9 °F 80% 30.60 in 10.0 mi Calm Calm - N/A   Clear
7:35 AM 1.4 °F - -2.0 °F 86% 30.61 in 10.0 mi Calm Calm - N/A   Clear
7:55 AM 4.1 °F - -0.4 °F 82% 30.61 in 10.0 mi Calm Calm - N/A   Clear
8:15 AM 1.6 °F - -3.1 °F 81% 30.62 in 10.0 mi Calm Calm - N/A   Clear
8:35 AM 5.0 °F - -0.8 °F 77% 30.63 in 10.0 mi Calm Calm - N/A   Clear
8:55 AM 6.8 °F - 0.1 °F 74% 30.63 in 10.0 mi Calm Calm - N/A   Clear
9:15 AM 8.8 °F - 0.3 °F 69% 30.64 in 10.0 mi Calm Calm - N/A   Clear
9:35 AM 10.2 °F - -2.0 °F 58% 30.64 in 10.0 mi Calm Calm - N/A   Clear
9:55 AM 11.3 °F - -4.4 °F 49% 30.65 in 10.0 mi Calm Calm - N/A   Clear
10:15 AM 12.0 °F 5.9 °F -4.5 °F 48% 30.65 in 10.0 mi SSW 3.5 mph - N/A   Clear
10:35 AM 12.7 °F 5.0 °F -3.5 °F 48% 30.65 in 10.0 mi SSW 4.6 mph - N/A   Clear
10:55 AM 13.8 °F 3.7 °F -0.9 °F 52% 30.64 in 10.0 mi SSW 6.9 mph - N/A   Clear
11:15 AM 13.8 °F 4.9 °F 0.5 °F 56% 30.63 in 10.0 mi SSW 5.8 mph - N/A   Clear
11:35 AM 16.2 °F 6.5 °F 3.6 °F 58% 30.62 in 10.0 mi SW 6.9 mph - N/A   Clear
11:55 AM 17.2 °F 6.0 °F 4.8 °F 58% 30.61 in 10.0 mi SW 9.2 mph - N/A   Clear
12:15 PM 18.0 °F 6.9 °F 5.7 °F 59% 30.60 in 10.0 mi SW 9.2 mph - N/A   Clear
12:35 PM 18.5 °F 7.5 °F 6.3 °F 59% 30.59 in 10.0 mi SW 9.2 mph - N/A   Clear
12:55 PM 19.4 °F 7.9 °F 6.8 °F 58% 30.58 in 10.0 mi SSW 10.4 mph - N/A   Clear
1:15 PM 20.3 °F 9.0 °F 7.5 °F 58% 30.57 in 10.0 mi SW 10.4 mph - N/A   Clear
1:35 PM 21.2 °F 10.1 °F 7.7 °F 56% 30.56 in 10.0 mi WSW 10.4 mph - N/A   Clear
1:55 PM 21.4 °F 10.4 °F 7.9 °F 56% 30.55 in 10.0 mi WSW 10.4 mph - N/A   Clear
2:15 PM 21.7 °F 11.5 °F 8.4 °F 57% 30.54 in 10.0 mi WSW 9.2 mph - N/A   Clear
2:35 PM 22.5 °F 12.4 °F 9.1 °F 57% 30.54 in 10.0 mi WSW 9.2 mph - N/A   Clear
2:55 PM 22.6 °F 11.9 °F 9.3 °F 57% 30.53 in 10.0 mi SW 10.4 mph - N/A   Clear
3:15 PM 23.0 °F 12.4 °F 9.9 °F 57% 30.52 in 10.0 mi SW 10.4 mph - N/A   Clear
3:35 PM 22.8 °F 12.2 °F 10.0 °F 58% 30.52 in 10.0 mi SSW 10.4 mph - N/A   Clear
3:55 PM 22.6 °F 13.4 °F 10.0 °F 59% 30.51 in 10.0 mi SW 8.1 mph - N/A   Clear
4:15 PM 22.1 °F 12.0 °F 9.9 °F 59% 30.50 in 10.0 mi WSW 9.2 mph - N/A   Clear
4:35 PM 21.0 °F 12.4 °F 10.0 °F 63% 30.50 in 10.0 mi WSW 6.9 mph - N/A   Clear
4:55 PM 18.5 °F 9.3 °F 9.1 °F 67% 30.49 in 10.0 mi WSW 6.9 mph - N/A   Clear
5:15 PM 14.5 °F 5.7 °F 7.7 °F 74% 30.47 in 10.0 mi SW 5.8 mph - N/A   Clear
5:35 PM 11.1 °F - 5.9 °F 80% 30.46 in 10.0 mi North - - N/A   Clear
5:55 PM 9.0 °F -0.9 °F 5.2 °F 85% 30.46 in 10.0 mi WSW 5.8 mph - N/A   Clear
6:15 PM 8.6 °F -2.6 °F 5.0 °F 85% 30.45 in 10.0 mi WSW 6.9 mph - N/A   Clear
6:35 PM 7.2 °F -4.3 °F 3.4 °F 85% 30.45 in 10.0 mi WSW 6.9 mph - N/A   Clear
6:55 PM 6.8 °F -4.8 °F 3.2 °F 85% 30.44 in 10.0 mi WSW 6.9 mph - N/A   Clear
7:15 PM 5.9 °F -5.8 °F 2.7 °F 87% 30.44 in 10.0 mi WSW 6.9 mph - N/A   Clear
8:15 PM 3.9 °F -10.4 °F 0.5 °F 86% 30.42 in 10.0 mi West 9.2 mph - N/A   Clear
9:15 PM -0.2 °F -14.4 °F -3.6 °F 85% 30.41 in 10.0 mi WSW 8.1 mph - N/A   Clear
9:35 PM 0.9 °F -15.1 °F -2.6 °F 86% 30.37 in 10.0 mi SW 10.4 mph - N/A   Clear
9:55 PM 0.9 °F -15.1 °F -2.7 °F 85% 30.37 in 10.0 mi WSW 10.4 mph - N/A   Clear
10:15 PM 0.3 °F -9.5 °F -3.8 °F 83% 30.37 in 10.0 mi WSW 4.6 mph - N/A   Clear
10:35 PM -0.0 °F -13.0 °F -3.8 °F 84% 30.36 in 10.0 mi WSW 6.9 mph - N/A   Clear
10:55 PM -0.2 °F -15.5 °F -3.5 °F 86% 30.35 in 10.0 mi WSW 9.2 mph - N/A   Clear
11:15 PM -0.0 °F -14.2 °F -3.8 °F 84% 30.34 in 10.0 mi WSW 8.1 mph - N/A   Clear
11:35 PM 0.1 °F -14.0 °F -3.5 °F 85% 30.32 in 10.0 mi WSW 8.1 mph - N/A   Clear
11:55 PM 0.5 °F -13.6 °F -3.1 °F 85% 30.31 in 10.0 mi WSW 8.1 mph - N/A   Clear